| time (UTC) | temp F | wind direction | speed MPH | gust MPH | rain 1hr in | rain 24hr in | rain mn in | humidity % | barometer mb |
| 20260506215759 | 64 | 115 | 7.0 | 13.0 | 0.00 | 0.00 | 0.00 | 98 | 914.1 |
| 20260506215359 | 64 | 109 | 4.0 | 8.0 | 0.00 | 0.00 | 0.00 | 98 | 914.2 |
| 20260506215258 | 64 | 53 | 4.0 | 8.0 | 0.00 | 0.00 | 0.00 | 98 | 914.2 |
| 20260506214758 | 64 | 71 | 5.0 | 10.0 | 0.00 | 0.00 | 0.00 | 98 | 914.2 |
| 20260506214159 | 64 | 73 | 8.0 | 10.0 | 0.00 | 0.00 | 0.00 | 98 | 914.1 |
| 20260506213758 | 64 | 85 | 5.0 | 8.0 | 0.00 | 0.00 | 0.00 | 98 | 914.0 |
| 20260506213559 | 64 | 70 | 7.0 | 10.0 | 0.00 | 0.00 | 0.00 | 98 | 914.0 |
| 20260506213257 | 64 | 77 | 8.0 | 9.0 | 0.00 | 0.00 | 0.00 | 98 | 913.8 |
| 20260506212959 | 64 | 80 | 7.0 | 9.0 | 0.00 | 0.00 | 0.00 | 98 | 913.9 |
| 20260506212757 | 64 | 81 | 6.0 | 8.0 | 0.00 | 0.00 | 0.00 | 98 | 913.8 |
| 20260506212359 | 64 | 63 | 6.0 | 9.0 | 0.00 | 0.00 | 0.00 | 98 | 913.7 |
| 20260506212257 | 64 | 76 | 7.0 | 9.0 | 0.00 | 0.00 | 0.00 | 98 | 913.8 |
| 20260506211759 | 64 | 88 | 7.0 | 10.0 | 0.00 | 0.00 | 0.00 | 98 | 913.7 |
| 20260506211757 | 64 | 85 | 7.0 | 10.0 | 0.00 | 0.00 | 0.00 | 98 | 913.7 |
| 20260506211257 | 64 | 66 | 8.0 | 10.0 | 0.00 | 0.00 | 0.00 | 98 | 913.6 |
| 20260506211159 | 64 | 80 | 8.0 | 10.0 | 0.00 | 0.00 | 0.00 | 98 | 913.6 |
| 20260506210757 | 64 | 82 | 9.0 | 11.0 | 0.00 | 0.00 | 0.00 | 98 | 913.7 |
| 20260506210559 | 64 | 70 | 9.0 | 11.0 | 0.00 | 0.00 | 0.00 | 98 | 913.6 |
| 20260506210257 | 64 | 89 | 9.0 | 11.0 | 0.00 | 0.00 | 0.00 | 98 | 913.5 |
| 20260506205959 | 64 | 75 | 8.0 | 11.0 | 0.00 | 0.00 | 0.00 | 98 | 913.6 |
| 20260506205757 | 64 | 81 | 8.0 | 11.0 | 0.00 | 0.00 | 0.00 | 98 | 913.6 |
| 20260506205359 | 64 | 80 | 7.0 | 11.0 | 0.00 | 0.00 | 0.00 | 98 | 913.6 |
| 20260506205257 | 64 | 90 | 8.0 | 11.0 | 0.00 | 0.00 | 0.00 | 98 | 913.6 |
| 20260506204759 | 64 | 84 | 8.0 | 12.0 | 0.00 | 0.00 | 0.00 | 98 | 913.6 |
| 20260506204757 | 64 | 93 | 8.0 | 12.0 | 0.00 | 0.00 | 0.00 | 98 | 913.5 |
| 20260506204257 | 64 | 95 | 10.0 | 12.0 | 0.00 | 0.00 | 0.00 | 98 | 913.6 |
| 20260506204158 | 64 | 108 | 9.0 | 12.0 | 0.00 | 0.00 | 0.00 | 98 | 913.6 |
| 20260506203757 | 64 | 115 | 7.0 | 12.0 | 0.00 | 0.00 | 0.00 | 98 | 913.5 |
| 20260506203558 | 64 | 105 | 8.0 | 12.0 | 0.00 | 0.00 | 0.00 | 98 | 913.6 |
| 20260506203257 | 64 | 100 | 8.0 | 11.0 | 0.00 | 0.00 | 0.00 | 98 | 913.6 |
| 20260506202958 | 64 | 119 | 7.0 | 11.0 | 0.00 | 0.00 | 0.00 | 98 | 913.5 |
| 20260506202757 | 64 | 119 | 7.0 | 11.0 | 0.00 | 0.00 | 0.00 | 98 | 913.6 |
| 20260506202358 | 64 | 129 | 7.0 | 11.0 | 0.00 | 0.00 | 0.00 | 98 | 913.5 |
| 20260506202257 | 64 | 107 | 7.0 | 11.0 | 0.00 | 0.00 | 0.00 | 98 | 913.6 |
| 20260506201759 | 64 | 118 | 8.0 | 11.0 | 0.00 | 0.00 | 0.00 | 98 | 913.5 |
| 20260506201757 | 64 | 106 | 8.0 | 11.0 | 0.00 | 0.00 | 0.00 | 98 | 913.5 |
| 20260506201257 | 64 | 112 | 8.0 | 11.0 | 0.00 | 0.00 | 0.00 | 98 | 913.4 |
| 20260506201158 | 64 | 100 | 8.0 | 11.0 | 0.00 | 0.00 | 0.00 | 98 | 913.4 |
| 20260506200757 | 64 | 94 | 7.0 | 11.0 | 0.00 | 0.00 | 0.00 | 98 | 913.4 |
| 20260506200558 | 64 | 129 | 8.0 | 11.0 | 0.00 | 0.00 | 0.00 | 98 | 913.4 |
| 20260506200257 | 64 | 72 | 7.0 | 11.0 | 0.00 | 0.00 | 0.00 | 98 | 913.5 |
| 20260506195958 | 64 | 103 | 8.0 | 11.0 | 0.00 | 0.00 | 0.00 | 98 | 913.4 |
| 20260506195757 | 63 | 99 | 8.0 | 11.0 | 0.00 | 0.00 | 0.00 | 98 | 913.4 |
| 20260506195358 | 64 | 115 | 9.0 | 12.0 | 0.00 | 0.00 | 0.00 | 98 | 913.3 |
| 20260506195257 | 64 | 95 | 9.0 | 12.0 | 0.00 | 0.00 | 0.00 | 98 | 913.3 |
| 20260506194758 | 64 | 96 | 9.0 | 12.0 | 0.00 | 0.00 | 0.00 | 98 | 913.4 |
| 20260506194256 | 64 | 123 | 6.0 | 10.0 | 0.00 | 0.00 | 0.00 | 98 | 913.4 |
| 20260506194158 | 64 | 87 | 7.0 | 10.0 | 0.00 | 0.00 | 0.00 | 98 | 913.4 |
| 20260506193756 | 64 | 103 | 8.0 | 10.0 | 0.00 | 0.00 | 0.00 | 98 | 913.4 |
| 20260506193256 | 64 | 126 | 8.0 | 10.0 | 0.00 | 0.00 | 0.00 | 98 | 913.4 |
| 20260506192958 | 64 | 106 | 1.0 | 8.0 | 0.00 | 0.00 | 0.00 | 98 | 913.4 |
| 20260506192756 | 64 | 117 | 7.0 | 11.0 | 0.00 | 0.00 | 0.00 | 98 | 913.4 |
| 20260506192358 | 64 | 91 | 8.0 | 10.0 | 0.00 | 0.00 | 0.00 | 98 | 913.4 |
| 20260506192256 | 64 | 109 | 8.0 | 10.0 | 0.00 | 0.00 | 0.00 | 98 | 913.4 |
| 20260506191758 | 64 | 107 | 8.0 | 10.0 | 0.00 | 0.00 | 0.00 | 98 | 913.4 |
| 20260506191756 | 64 | 108 | 8.0 | 10.0 | 0.00 | 0.00 | 0.00 | 98 | 913.5 |
| 20260506191256 | 64 | 101 | 6.0 | 8.0 | 0.00 | 0.00 | 0.00 | 98 | 913.6 |
| 20260506191158 | 64 | 114 | 5.0 | 8.0 | 0.00 | 0.00 | 0.00 | 98 | 913.6 |
| 20260506190756 | 64 | 99 | 5.0 | 8.0 | 0.00 | 0.00 | 0.00 | 98 | 913.5 |
| 20260506190256 | 64 | 112 | 5.0 | 8.0 | 0.00 | 0.00 | 0.00 | 98 | 913.4 |
| 20260506185958 | 64 | 126 | 4.0 | 8.0 | 0.00 | 0.00 | 0.00 | 98 | 913.6 |
| 20260506185756 | 64 | 103 | 5.0 | 8.0 | 0.00 | 0.00 | 0.00 | 98 | 913.6 |
| 20260506185358 | 64 | 118 | 4.0 | 6.0 | 0.00 | 0.00 | 0.00 | 98 | 913.6 |
| 20260506185256 | 64 | 135 | 5.0 | 6.0 | 0.00 | 0.00 | 0.00 | 98 | 913.7 |
| 20260506184758 | 64 | 80 | 0.0 | 2.0 | 0.00 | 0.00 | 0.00 | 98 | 913.7 |
| 20260506184756 | 64 | 74 | 0.0 | 2.0 | 0.00 | 0.00 | 0.00 | 98 | 913.6 |
| 20260506184256 | 64 | 116 | 4.0 | 7.0 | 0.00 | 0.00 | 0.00 | 98 | 913.7 |
| 20260506184157 | 64 | 98 | 4.0 | 7.0 | 0.00 | 0.00 | 0.00 | 98 | 913.7 |
| 20260506183756 | 64 | 43 | 3.0 | 6.0 | 0.00 | 0.00 | 0.00 | 98 | 913.7 |
| 20260506183558 | 64 | 115 | 3.0 | 6.0 | 0.00 | 0.00 | 0.00 | 98 | 913.7 |
| 20260506183256 | 64 | 96 | 4.0 | 7.0 | 0.00 | 0.00 | 0.00 | 98 | 913.7 |
| 20260506182957 | 64 | 108 | 4.0 | 8.0 | 0.00 | 0.00 | 0.00 | 98 | 913.8 |
| 20260506182756 | 64 | 82 | 4.0 | 9.0 | 0.00 | 0.00 | 0.00 | 98 | 913.8 |
| 20260506182357 | 64 | 104 | 5.0 | 9.0 | 0.00 | 0.00 | 0.00 | 98 | 913.8 |
| 20260506182257 | 64 | 97 | 5.0 | 9.0 | 0.00 | 0.00 | 0.00 | 98 | 913.8 |
| 20260506181758 | 64 | 93 | 6.0 | 9.0 | 0.00 | 0.00 | 0.00 | 98 | 913.8 |
| 20260506181756 | 64 | 97 | 6.0 | 9.0 | 0.00 | 0.00 | 0.00 | 98 | 913.8 |
| 20260506181256 | 64 | 73 | 5.0 | 9.0 | 0.00 | 0.00 | 0.00 | 98 | 913.9 |
| 20260506181157 | 64 | 102 | 5.0 | 9.0 | 0.00 | 0.00 | 0.00 | 98 | 913.9 |
| 20260506180756 | 64 | 117 | 4.0 | 9.0 | 0.00 | 0.00 | 0.00 | 98 | 913.9 |
| 20260506180557 | 64 | 111 | 6.0 | 9.0 | 0.00 | 0.00 | 0.00 | 98 | 913.9 |
| 20260506180256 | 64 | 84 | 6.0 | 9.0 | 0.00 | 0.00 | 0.00 | 98 | 913.9 |
| 20260506175958 | 64 | 108 | 6.0 | 9.0 | 0.00 | 0.00 | 0.00 | 98 | 913.9 |
| 20260506175756 | 64 | 118 | 5.0 | 9.0 | 0.00 | 0.00 | 0.00 | 98 | 914.0 |
| 20260506175357 | 64 | 95 | 5.0 | 9.0 | 0.00 | 0.00 | 0.00 | 98 | 914.0 |
| 20260506175256 | 64 | 107 | 4.0 | 8.0 | 0.00 | 0.00 | 0.00 | 98 | 914.0 |
| 20260506174757 | 64 | 128 | 6.0 | 8.0 | 0.00 | 0.00 | 0.00 | 98 | 914.0 |
| 20260506174256 | 64 | 128 | 4.0 | 6.0 | 0.00 | 0.00 | 0.00 | 98 | 914.0 |
| 20260506174157 | 64 | 111 | 4.0 | 6.0 | 0.00 | 0.00 | 0.00 | 98 | 914.0 |
| 20260506173756 | 64 | 109 | 7.0 | 10.0 | 0.00 | 0.00 | 0.00 | 98 | 914.0 |
| 20260506173557 | 64 | 112 | 7.0 | 10.0 | 0.00 | 0.00 | 0.00 | 98 | 914.0 |
| 20260506173257 | 64 | 121 | 7.0 | 10.0 | 0.00 | 0.00 | 0.00 | 98 | 913.9 |
| 20260506172755 | 64 | 89 | 7.0 | 10.0 | 0.00 | 0.00 | 0.00 | 98 | 913.9 |
| 20260506172357 | 63 | 61 | 8.0 | 10.0 | 0.00 | 0.00 | 0.00 | 98 | 913.9 |
| 20260506172255 | 63 | 72 | 7.0 | 9.0 | 0.00 | 0.00 | 0.00 | 98 | 913.9 |
| 20260506171757 | 64 | 77 | 7.0 | 8.0 | 0.00 | 0.00 | 0.00 | 98 | 914.0 |
| 20260506171255 | 64 | 94 | 1.0 | 8.0 | 0.00 | 0.00 | 0.00 | 98 | 914.0 |
| 20260506171157 | 63 | 74 | 0.0 | 0.0 | 0.00 | 0.00 | 0.00 | 98 | 914.0 |
| 20260506170255 | 64 | 64 | 2.0 | 12.0 | 0.00 | 0.00 | 0.00 | 98 | 914.0 |
| 20260506165957 | 64 | 87 | 6.0 | 10.0 | 0.00 | 0.00 | 0.00 | 98 | 914.0 |
| 20260506165755 | 64 | 79 | 4.0 | 9.0 | 0.00 | 0.00 | 0.00 | 98 | 914.0 |
| 20260506165357 | 63 | 74 | 1.0 | 7.0 | 0.00 | 0.00 | 0.00 | 98 | 914.1 |
| 20260506165255 | 63 | 71 | 2.0 | 7.0 | 0.00 | 0.00 | 0.00 | 98 | 914.1 |
| 20260506164757 | 64 | 55 | 6.0 | 10.0 | 0.00 | 0.00 | 0.00 | 98 | 914.1 |
| 20260506164755 | 64 | 39 | 6.0 | 10.0 | 0.00 | 0.00 | 0.00 | 98 | 914.1 |
| 20260506164255 | 64 | 84 | 6.0 | 12.0 | 0.00 | 0.00 | 0.00 | 98 | 914.0 |
| 20260506164157 | 64 | 79 | 8.0 | 12.0 | 0.00 | 0.00 | 0.00 | 98 | 914.1 |
| 20260506163755 | 63 | 103 | 9.0 | 12.0 | 0.00 | 0.00 | 0.00 | 98 | 914.0 |
| 20260506163557 | 63 | 78 | 9.0 | 12.0 | 0.00 | 0.00 | 0.00 | 98 | 914.0 |
| 20260506162956 | 63 | 80 | 10.0 | 12.0 | 0.00 | 0.00 | 0.00 | 98 | 914.1 |
| 20260506162755 | 63 | 61 | 6.0 | 11.0 | 0.00 | 0.00 | 0.00 | 98 | 914.1 |
| 20260506162356 | 63 | 83 | 8.0 | 12.0 | 0.00 | 0.00 | 0.00 | 98 | 914.1 |
| 20260506162255 | 63 | 71 | 8.0 | 10.0 | 0.00 | 0.00 | 0.00 | 98 | 914.2 |
| 20260506161757 | 63 | 71 | 8.0 | 10.0 | 0.00 | 0.00 | 0.00 | 98 | 914.1 |
| 20260506161755 | 63 | 75 | 8.0 | 10.0 | 0.00 | 0.00 | 0.00 | 98 | 914.2 |
| 20260506161257 | 63 | 79 | 0.0 | 0.0 | 0.00 | 0.00 | 0.00 | 98 | 914.3 |
| 20260506161156 | 63 | 77 | 9.0 | 12.0 | 0.00 | 0.00 | 0.00 | 98 | 914.2 |
| 20260506160755 | 63 | 83 | 8.0 | 12.0 | 0.00 | 0.00 | 0.00 | 98 | 914.2 |
| 20260506160556 | 63 | 53 | 8.0 | 12.0 | 0.00 | 0.00 | 0.00 | 98 | 914.3 |
| 20260506160255 | 63 | 68 | 1.0 | 12.0 | 0.00 | 0.00 | 0.00 | 98 | 914.3 |
| 20260506155958 | 63 | 69 | 10.0 | 13.0 | 0.00 | 0.00 | 0.00 | 98 | 914.3 |
| 20260506155755 | 63 | 42 | 9.0 | 13.0 | 0.00 | 0.00 | 0.00 | 98 | 914.3 |
| 20260506155356 | 63 | 54 | 9.0 | 13.0 | 0.00 | 0.00 | 0.00 | 98 | 914.2 |
| 20260506155255 | 63 | 72 | 8.0 | 13.0 | 0.00 | 0.00 | 0.00 | 98 | 914.3 |
| 20260506154757 | 63 | 88 | 1.0 | 9.0 | 0.00 | 0.00 | 0.00 | 98 | 914.3 |
| 20260506154755 | 63 | 90 | 1.0 | 9.0 | 0.00 | 0.00 | 0.00 | 98 | 914.3 |
| 20260506154255 | 63 | 81 | 7.0 | 12.0 | 0.00 | 0.00 | 0.00 | 98 | 914.3 |
| 20260506154156 | 63 | 76 | 3.0 | 10.0 | 0.00 | 0.00 | 0.00 | 98 | 914.3 |
| 20260506153755 | 63 | 51 | 10.0 | 13.0 | 0.00 | 0.00 | 0.00 | 98 | 914.2 |
| 20260506153556 | 63 | 56 | 9.0 | 11.0 | 0.00 | 0.00 | 0.00 | 98 | 914.3 |
| 20260506153255 | 63 | 62 | 9.0 | 10.0 | 0.00 | 0.00 | 0.00 | 98 | 914.4 |
| 20260506152956 | 64 | 48 | 7.0 | 10.0 | 0.00 | 0.00 | 0.00 | 98 | 914.4 |
| 20260506152755 | 64 | 66 | 1.0 | 7.0 | 0.00 | 0.00 | 0.00 | 98 | 914.5 |
| 20260506152356 | 64 | 90 | 7.0 | 9.0 | 0.00 | 0.00 | 0.00 | 98 | 914.4 |
| 20260506152255 | 64 | 83 | 7.0 | 9.0 | 0.00 | 0.00 | 0.00 | 98 | 914.5 |
| 20260506151756 | 64 | 73 | 6.0 | 11.0 | 0.00 | 0.00 | 0.00 | 98 | 914.6 |
| 20260506151254 | 64 | 74 | 8.0 | 11.0 | 0.00 | 0.00 | 0.00 | 98 | 914.6 |
| 20260506151156 | 64 | 71 | 8.0 | 11.0 | 0.00 | 0.00 | 0.00 | 98 | 914.5 |
| 20260506150754 | 64 | 77 | 9.0 | 11.0 | 0.00 | 0.00 | 0.00 | 98 | 914.5 |
| 20260506150557 | 64 | 80 | 8.0 | 11.0 | 0.00 | 0.00 | 0.00 | 98 | 914.5 |
| 20260506150302 | 64 | 68 | 2.0 | 8.0 | 0.00 | 0.00 | 0.00 | 98 | 914.6 |
| 20260506145956 | 64 | 69 | 7.0 | 9.0 | 0.00 | 0.00 | 0.00 | 98 | 914.6 |
| 20260506145754 | 63 | 39 | 0.0 | 0.0 | 0.00 | 0.00 | 0.00 | 98 | 914.6 |
| 20260506145356 | 64 | 85 | 8.0 | 12.0 | 0.00 | 0.00 | 0.00 | 98 | 914.6 |
| 20260506145254 | 64 | 69 | 8.0 | 12.0 | 0.00 | 0.00 | 0.00 | 98 | 914.6 |
| 20260506144756 | 63 | 91 | 9.0 | 11.0 | 0.00 | 0.00 | 0.00 | 98 | 914.7 |
| 20260506144254 | 63 | 81 | 9.0 | 11.0 | 0.00 | 0.00 | 0.00 | 98 | 914.6 |
| 20260506144156 | 63 | 48 | 8.0 | 9.0 | 0.00 | 0.00 | 0.00 | 98 | 914.6 |
| 20260506143754 | 63 | 78 | 8.0 | 11.0 | 0.00 | 0.00 | 0.00 | 98 | 914.6 |
| 20260506143254 | 63 | 71 | 5.0 | 10.0 | 0.00 | 0.00 | 0.00 | 98 | 914.5 |
| 20260506142956 | 63 | 107 | 7.0 | 10.0 | 0.00 | 0.00 | 0.00 | 98 | 914.4 |
| 20260506142754 | 63 | 90 | 1.0 | 9.0 | 0.00 | 0.00 | 0.00 | 98 | 914.4 |
| 20260506142357 | 63 | 80 | 5.0 | 9.0 | 0.00 | 0.00 | 0.00 | 98 | 914.4 |
| 20260506142254 | 63 | 71 | 6.0 | 9.0 | 0.00 | 0.00 | 0.00 | 98 | 914.4 |
| 20260506141757 | 63 | 85 | 0.0 | 0.0 | 0.00 | 0.00 | 0.00 | 98 | 914.5 |
| 20260506141254 | 63 | 79 | 4.0 | 7.0 | 0.00 | 0.00 | 0.00 | 98 | 914.4 |
| 20260506141155 | 63 | 81 | 5.0 | 7.0 | 0.00 | 0.00 | 0.00 | 98 | 914.4 |
| 20260506140754 | 63 | 66 | 2.0 | 5.0 | 0.00 | 0.00 | 0.00 | 98 | 914.4 |
| 20260506140555 | 63 | 114 | 2.0 | 3.0 | 0.00 | 0.00 | 0.00 | 98 | 914.5 |
| 20260506140254 | 63 | 28 | 0.0 | 2.0 | 0.00 | 0.00 | 0.00 | 98 | 914.5 |
| 20260506135955 | 63 | 41 | 3.0 | 5.0 | 0.00 | 0.00 | 0.00 | 98 | 914.4 |
| 20260506135754 | 63 | 71 | 2.0 | 5.0 | 0.00 | 0.00 | 0.00 | 98 | 914.4 |
| 20260506135355 | 64 | 10 | 2.0 | 4.0 | 0.00 | 0.00 | 0.00 | 98 | 914.4 |
| 20260506135254 | 64 | 37 | 2.0 | 4.0 | 0.00 | 0.00 | 0.00 | 98 | 914.5 |
| 20260506134756 | 64 | 38 | 3.0 | 7.0 | 0.00 | 0.00 | 0.00 | 98 | 914.4 |
| 20260506134754 | 64 | 40 | 3.0 | 7.0 | 0.00 | 0.00 | 0.00 | 98 | 914.4 |
| 20260506134254 | 64 | 60 | 4.0 | 7.0 | 0.00 | 0.00 | 0.00 | 98 | 914.4 |
| 20260506134155 | 64 | 115 | 4.0 | 7.0 | 0.00 | 0.00 | 0.00 | 98 | 914.3 |
| 20260506133754 | 64 | 86 | 3.0 | 5.0 | 0.00 | 0.00 | 0.00 | 98 | 914.3 |
| 20260506133555 | 64 | 91 | 0.0 | 1.0 | 0.00 | 0.00 | 0.00 | 98 | 914.3 |
| 20260506133254 | 64 | 58 | 4.0 | 7.0 | 0.00 | 0.00 | 0.00 | 98 | 914.3 |
| 20260506132955 | 64 | 77 | 4.0 | 7.0 | 0.00 | 0.00 | 0.00 | 98 | 914.3 |
| 20260506132754 | 64 | 91 | 4.0 | 6.0 | 0.00 | 0.00 | 0.00 | 98 | 914.3 |
| 20260506132355 | 63 | 62 | 4.0 | 7.0 | 0.00 | 0.00 | 0.00 | 98 | 914.3 |
| 20260506132254 | 63 | 55 | 5.0 | 7.0 | 0.00 | 0.00 | 0.00 | 98 | 914.2 |
| 20260506131755 | 63 | 70 | 4.0 | 7.0 | 0.00 | 0.00 | 0.00 | 98 | 914.1 |
| 20260506131753 | 63 | 68 | 4.0 | 7.0 | 0.00 | 0.00 | 0.00 | 98 | 914.1 |
| 20260506131254 | 63 | 87 | 2.0 | 6.0 | 0.00 | 0.00 | 0.00 | 98 | 914.1 |
| 20260506131155 | 63 | 77 | 0.0 | 4.0 | 0.00 | 0.00 | 0.00 | 98 | 914.1 |
| 20260506130755 | 64 | 94 | 3.0 | 5.0 | 0.00 | 0.00 | 0.00 | 98 | 914.1 |
| 20260506130253 | 64 | 90 | 3.0 | 5.0 | 0.00 | 0.00 | 0.00 | 98 | 914.1 |
| 20260506125955 | 64 | 88 | 2.0 | 7.0 | 0.00 | 0.00 | 0.00 | 98 | 914.1 |
| 20260506125753 | 64 | 99 | 2.0 | 5.0 | 0.00 | 0.00 | 0.00 | 98 | 914.1 |
| 20260506125355 | 64 | 103 | 3.0 | 6.0 | 0.00 | 0.00 | 0.00 | 98 | 914.1 |
| 20260506125256 | 64 | 115 | 2.0 | 5.0 | 0.00 | 0.00 | 0.00 | 98 | 914.1 |
| 20260506124755 | 64 | 61 | 0.0 | 4.0 | 0.00 | 0.00 | 0.00 | 98 | 914.1 |
| 20260506124753 | 64 | 64 | 0.0 | 4.0 | 0.00 | 0.00 | 0.00 | 98 | 914.1 |
| 20260506124253 | 64 | 71 | 4.0 | 6.0 | 0.00 | 0.00 | 0.00 | 98 | 914.0 |
| 20260506124155 | 64 | 69 | 3.0 | 6.0 | 0.00 | 0.00 | 0.00 | 98 | 914.0 |
| 20260506123753 | 64 | 52 | 3.0 | 6.0 | 0.00 | 0.00 | 0.00 | 98 | 914.0 |
| 20260506123555 | 64 | 58 | 1.0 | 6.0 | 0.00 | 0.00 | 0.00 | 98 | 914.0 |
| 20260506123253 | 64 | 66 | 3.0 | 6.0 | 0.00 | 0.00 | 0.00 | 98 | 914.0 |
| 20260506122954 | 64 | 42 | 4.0 | 6.0 | 0.00 | 0.00 | 0.00 | 98 | 913.9 |
| 20260506122753 | 64 | 66 | 2.0 | 6.0 | 0.00 | 0.00 | 0.00 | 98 | 913.9 |
| 20260506122355 | 64 | 93 | 5.0 | 8.0 | 0.00 | 0.00 | 0.00 | 98 | 913.9 |
| 20260506122253 | 64 | 69 | 5.0 | 8.0 | 0.00 | 0.00 | 0.00 | 98 | 913.9 |
| 20260506121755 | 64 | 100 | 5.0 | 8.0 | 0.00 | 0.00 | 0.00 | 98 | 913.8 |
| 20260506121753 | 64 | 89 | 5.0 | 8.0 | 0.00 | 0.00 | 0.00 | 98 | 913.8 |
| 20260506121253 | 64 | 89 | 6.0 | 8.0 | 0.00 | 0.00 | 0.00 | 98 | 913.8 |
| 20260506121155 | 64 | 79 | 6.0 | 8.0 | 0.00 | 0.00 | 0.00 | 98 | 913.8 |
| 20260506120753 | 64 | 82 | 6.0 | 8.0 | 0.00 | 0.00 | 0.00 | 98 | 913.8 |
| 20260506120554 | 64 | 93 | 5.0 | 8.0 | 0.00 | 0.00 | 0.00 | 98 | 913.8 |
| 20260506120253 | 64 | 89 | 4.0 | 8.0 | 0.00 | 0.00 | 0.00 | 98 | 913.8 |
| 20260506115954 | 64 | 94 | 4.0 | 7.0 | 0.00 | 0.00 | 0.00 | 98 | 913.8 |
| 20260506115753 | 64 | 98 | 1.0 | 6.0 | 0.00 | 0.00 | 0.00 | 98 | 913.7 |
| 20260506115354 | 64 | 114 | 4.0 | 8.0 | 0.00 | 0.00 | 0.00 | 98 | 913.7 |
| 20260506115254 | 64 | 81 | 5.0 | 8.0 | 0.00 | 0.00 | 0.00 | 98 | 913.7 |
| 20260506114753 | 64 | 101 | 6.0 | 10.0 | 0.00 | 0.00 | 0.00 | 98 | 913.6 |
| 20260506114253 | 64 | 124 | 6.0 | 9.0 | 0.00 | 0.00 | 0.00 | 98 | 913.5 |
| 20260506114154 | 64 | 78 | 3.0 | 8.0 | 0.00 | 0.00 | 0.00 | 98 | 913.6 |
| 20260506113753 | 64 | 113 | 6.0 | 9.0 | 0.00 | 0.00 | 0.00 | 98 | 913.5 |
| 20260506113554 | 64 | 119 | 5.0 | 8.0 | 0.00 | 0.00 | 0.00 | 98 | 913.5 |
| 20260506112954 | 64 | 131 | 7.0 | 10.0 | 0.00 | 0.00 | 0.00 | 98 | 913.5 |
| 20260506112753 | 64 | 100 | 7.0 | 10.0 | 0.00 | 0.00 | 0.00 | 98 | 913.5 |
| 20260506112354 | 64 | 132 | 8.0 | 10.0 | 0.00 | 0.00 | 0.00 | 98 | 913.5 |
| 20260506112253 | 64 | 118 | 7.0 | 10.0 | 0.00 | 0.00 | 0.00 | 98 | 913.5 |
| 20260506111753 | 64 | 114 | 8.0 | 10.0 | 0.00 | 0.00 | 0.00 | 98 | 913.5 |
| 20260506111252 | 64 | 92 | 0.0 | 4.0 | 0.00 | 0.00 | 0.00 | 98 | 913.6 |
| 20260506111154 | 64 | 112 | 6.0 | 10.0 | 0.00 | 0.00 | 0.00 | 98 | 913.5 |
| 20260506110753 | 64 | 141 | 6.0 | 10.0 | 0.00 | 0.00 | 0.00 | 98 | 913.5 |
| 20260506110554 | 64 | 118 | 6.0 | 9.0 | 0.00 | 0.00 | 0.00 | 98 | 913.5 |
| 20260506110252 | 64 | 124 | 3.0 | 9.0 | 0.00 | 0.00 | 0.00 | 99 | 913.5 |
| 20260506103252 | 65 | 116 | 6.0 | 8.0 | 0.00 | 0.00 | 0.00 | 98 | 913.3 |
| 20260506102954 | 65 | 120 | 5.0 | 9.0 | 0.00 | 0.00 | 0.00 | 98 | 913.4 |
| 20260506102752 | 65 | 96 | 4.0 | 9.0 | 0.00 | 0.00 | 0.00 | 98 | 913.3 |
| 20260506102353 | 64 | 155 | 4.0 | 9.0 | 0.00 | 0.00 | 0.00 | 98 | 913.3 |
| 20260506102252 | 64 | 138 | 5.0 | 9.0 | 0.00 | 0.00 | 0.00 | 98 | 913.3 |
| 20260506101754 | 64 | 127 | 0.0 | 2.0 | 0.00 | 0.00 | 0.00 | 98 | 913.2 |
| 20260506101752 | 64 | 128 | 0.0 | 2.0 | 0.00 | 0.00 | 0.00 | 98 | 913.2 |
| 20260506101252 | 65 | 202 | 4.0 | 8.0 | 0.00 | 0.00 | 0.00 | 98 | 913.1 |
| 20260506101154 | 65 | 159 | 4.0 | 8.0 | 0.00 | 0.00 | 0.00 | 98 | 913.2 |
| 20260506100752 | 65 | 196 | 3.0 | 8.0 | 0.00 | 0.00 | 0.00 | 98 | 913.1 |
| 20260506100553 | 65 | 224 | 4.0 | 7.0 | 0.00 | 0.00 | 0.00 | 98 | 913.1 |
| 20260506100252 | 65 | 186 | 5.0 | 7.0 | 0.00 | 0.00 | 0.00 | 98 | 913.1 |
| 20260506095953 | 65 | 174 | 4.0 | 7.0 | 0.00 | 0.00 | 0.00 | 98 | 913.1 |
| 20260506095752 | 65 | 153 | 5.0 | 7.0 | 0.00 | 0.00 | 0.00 | 98 | 913.1 |
| 20260506095353 | 65 | 129 | 4.0 | 7.0 | 0.00 | 0.00 | 0.00 | 98 | 913.1 |
| 20260506095252 | 65 | 162 | 3.0 | 7.0 | 0.00 | 0.00 | 0.00 | 98 | 913.0 |
| 20260506094754 | 66 | 228 | 1.0 | 6.0 | 0.00 | 0.00 | 0.00 | 98 | 913.1 |
| 20260506094752 | 66 | 227 | 1.0 | 6.0 | 0.00 | 0.00 | 0.00 | 98 | 913.1 |
| 20260506094252 | 66 | 141 | 5.0 | 7.0 | 0.00 | 0.00 | 0.00 | 98 | 913.1 |
| 20260506094153 | 65 | 140 | 4.0 | 7.0 | 0.00 | 0.00 | 0.00 | 98 | 913.1 |
| 20260506093752 | 66 | 170 | 5.0 | 7.0 | 0.00 | 0.00 | 0.00 | 98 | 913.1 |
| 20260506093553 | 65 | 148 | 3.0 | 7.0 | 0.00 | 0.00 | 0.00 | 98 | 913.1 |
| 20260506093252 | 65 | 146 | 0.0 | 7.0 | 0.00 | 0.00 | 0.00 | 98 | 913.0 |
| 20260506092953 | 65 | 142 | 5.0 | 8.0 | 0.00 | 0.00 | 0.00 | 98 | 913.0 |
| 20260506092752 | 65 | 151 | 5.0 | 8.0 | 0.00 | 0.00 | 0.00 | 98 | 913.0 |
| 20260506092356 | 65 | 169 | 5.0 | 9.0 | 0.00 | 0.00 | 0.00 | 98 | 913.0 |
| 20260506092252 | 65 | 179 | 4.0 | 9.0 | 0.00 | 0.00 | 0.00 | 98 | 913.1 |
| 20260506091753 | 65 | 130 | 5.0 | 8.0 | 0.00 | 0.00 | 0.00 | 98 | 913.1 |
| 20260506091252 | 65 | 159 | 5.0 | 8.0 | 0.00 | 0.00 | 0.00 | 98 | 913.1 |
| 20260506091153 | 65 | 153 | 5.0 | 8.0 | 0.00 | 0.00 | 0.00 | 98 | 913.1 |
| 20260506090553 | 65 | 68 | 5.0 | 8.0 | 0.00 | 0.00 | 0.00 | 98 | 913.0 |
| 20260506090252 | 65 | 189 | 4.0 | 7.0 | 0.00 | 0.00 | 0.00 | 98 | 913.0 |
| 20260506085953 | 65 | 102 | 5.0 | 7.0 | 0.00 | 0.00 | 0.00 | 98 | 913.1 |
| 20260506085754 | 65 | 82 | 2.0 | 8.0 | 0.00 | 0.00 | 0.00 | 98 | 913.1 |
| 20260506085251 | 64 | 79 | 4.0 | 8.0 | 0.00 | 0.00 | 0.00 | 98 | 913.1 |
| 20260506084754 | 65 | 143 | 5.0 | 7.0 | 0.00 | 0.00 | 0.00 | 98 | 913.1 |
| 20260506084752 | 65 | 146 | 5.0 | 7.0 | 0.00 | 0.00 | 0.00 | 98 | 913.1 |
| 20260506084253 | 64 | 114 | 3.0 | 9.0 | 0.00 | 0.00 | 0.00 | 98 | 913.0 |
| 20260506084153 | 64 | 124 | 1.0 | 9.0 | 0.00 | 0.00 | 0.00 | 98 | 913.0 |
| 20260506083751 | 64 | 112 | 5.0 | 7.0 | 0.00 | 0.00 | 0.00 | 98 | 913.1 |
| 20260506083553 | 64 | 69 | 0.0 | 7.0 | 0.00 | 0.00 | 0.00 | 98 | 913.1 |
| 20260506083251 | 64 | 115 | 7.0 | 10.0 | 0.00 | 0.00 | 0.00 | 98 | 913.0 |
| 20260506082953 | 65 | 74 | 5.0 | 8.0 | 0.00 | 0.00 | 0.00 | 98 | 913.0 |
| 20260506082751 | 65 | 109 | 6.0 | 8.0 | 0.00 | 0.00 | 0.00 | 98 | 913.0 |
| 20260506082353 | 64 | 93 | 5.0 | 9.0 | 0.00 | 0.00 | 0.00 | 98 | 913.0 |
| 20260506082251 | 64 | 114 | 1.0 | 6.0 | 0.00 | 0.00 | 0.00 | 98 | 913.1 |
| 20260506081753 | 65 | 119 | 7.0 | 10.0 | 0.00 | 0.00 | 0.00 | 98 | 913.1 |
| 20260506081751 | 65 | 116 | 7.0 | 10.0 | 0.00 | 0.00 | 0.00 | 98 | 913.1 |
| 20260506081251 | 65 | 109 | 7.0 | 10.0 | 0.00 | 0.00 | 0.00 | 98 | 913.1 |
| 20260506081153 | 65 | 85 | 6.0 | 10.0 | 0.00 | 0.00 | 0.00 | 98 | 913.1 |
| 20260506080751 | 65 | 86 | 6.0 | 10.0 | 0.00 | 0.00 | 0.00 | 98 | 913.1 |
| 20260506080553 | 64 | 98 | 0.0 | 0.0 | 0.00 | 0.00 | 0.00 | 98 | 913.1 |
| 20260506080251 | 64 | 106 | 5.0 | 10.0 | 0.00 | 0.00 | 0.00 | 98 | 913.1 |
| 20260506073251 | 64 | 92 | 0.0 | 2.0 | 0.00 | 0.00 | 0.00 | 98 | 913.4 |
| 20260506072751 | 64 | 90 | 4.0 | 7.0 | 0.00 | 0.00 | 0.00 | 98 | 913.5 |
| 20260506072352 | 64 | 91 | 5.0 | 8.0 | 0.00 | 0.00 | 0.00 | 98 | 913.5 |
| 20260506072251 | 64 | 87 | 3.0 | 8.0 | 0.00 | 0.00 | 0.00 | 98 | 913.5 |
| 20260506071753 | 64 | 99 | 4.0 | 8.0 | 0.00 | 0.00 | 0.00 | 98 | 913.6 |
| 20260506071751 | 64 | 89 | 4.0 | 8.0 | 0.00 | 0.00 | 0.00 | 98 | 913.6 |
| 20260506070251 | 64 | 107 | 1.0 | 6.0 | 0.00 | 0.00 | 0.00 | 98 | 913.6 |
| 20260506062352 | 64 | 76 | 0.0 | 1.0 | 0.00 | 0.00 | 0.00 | 98 | 913.9 |
| 20260506062250 | 64 | 56 | 1.0 | 7.0 | 0.00 | 0.00 | 0.00 | 98 | 913.9 |
| 20260506061752 | 64 | 83 | 2.0 | 5.0 | 0.00 | 0.00 | 0.00 | 98 | 914.0 |
| 20260506061750 | 64 | 94 | 2.0 | 5.0 | 0.00 | 0.00 | 0.00 | 98 | 914.0 |
| 20260506061250 | 64 | 112 | 1.0 | 5.0 | 0.00 | 0.00 | 0.00 | 98 | 914.0 |
| 20260506061152 | 64 | 111 | 3.0 | 5.0 | 0.00 | 0.00 | 0.00 | 98 | 914.1 |
| 20260506060750 | 64 | 62 | 2.0 | 5.0 | 0.00 | 0.00 | 0.00 | 98 | 914.1 |
| 20260506060551 | 64 | 98 | 1.0 | 4.0 | 0.00 | 0.00 | 0.00 | 98 | 914.0 |
| 20260506060250 | 64 | 94 | 3.0 | 5.0 | 0.00 | 0.00 | 0.00 | 98 | 914.1 |
| 20260506051250 | 65 | 141 | 3.0 | 5.0 | 0.00 | 0.00 | 0.00 | 98 | 914.6 |
| 20260506051153 | 65 | 123 | 2.0 | 5.0 | 0.00 | 0.00 | 0.00 | 98 | 914.5 |
| 20260506050750 | 64 | 139 | 1.0 | 3.0 | 0.00 | 0.00 | 0.00 | 98 | 914.6 |
| 20260506050551 | 65 | 96 | 1.0 | 3.0 | 0.00 | 0.00 | 0.00 | 98 | 914.6 |
| 20260506050250 | 65 | 99 | 1.0 | 3.0 | 0.00 | 0.00 | 0.00 | 98 | 914.6 |
| 20260506044751 | 64 | 145 | 2.0 | 6.0 | 0.00 | 0.00 | 0.00 | 98 | 914.8 |
| 20260506044151 | 64 | 68 | 4.0 | 7.0 | 0.00 | 0.00 | 0.00 | 98 | 914.7 |
| 20260506043749 | 64 | 70 | 4.0 | 7.0 | 0.00 | 0.00 | 0.00 | 98 | 914.8 |
| 20260506043551 | 64 | 68 | 5.0 | 7.0 | 0.00 | 0.00 | 0.00 | 98 | 914.8 |
| 20260506043249 | 63 | 90 | 5.0 | 7.0 | 0.00 | 0.00 | 0.00 | 98 | 914.8 |
| 20260506042951 | 63 | 82 | 6.0 | 7.0 | 0.00 | 0.00 | 0.00 | 98 | 914.8 |
| 20260506042750 | 63 | 68 | 6.0 | 7.0 | 0.00 | 0.00 | 0.00 | 98 | 914.8 |
| 20260506042351 | 64 | 88 | 2.0 | 7.0 | 0.00 | 0.00 | 0.00 | 98 | 914.8 |
| 20260506042249 | 64 | 79 | 5.0 | 7.0 | 0.00 | 0.00 | 0.00 | 98 | 914.8 |
| 20260506041752 | 64 | 59 | 6.0 | 8.0 | 0.00 | 0.00 | 0.00 | 98 | 914.8 |
| 20260506041249 | 64 | 101 | 5.0 | 6.0 | 0.00 | 0.00 | 0.00 | 98 | 914.8 |
| 20260506041151 | 64 | 97 | 3.0 | 6.0 | 0.00 | 0.00 | 0.00 | 98 | 914.8 |
| 20260506040749 | 64 | 87 | 2.0 | 5.0 | 0.00 | 0.00 | 0.00 | 98 | 914.9 |
| 20260506040551 | 64 | 101 | 3.0 | 5.0 | 0.00 | 0.00 | 0.00 | 98 | 914.9 |
| 20260506040249 | 64 | 71 | 2.0 | 5.0 | 0.00 | 0.00 | 0.00 | 98 | 914.9 |
| 20260506035350 | 64 | 109 | 1.0 | 4.0 | 0.00 | 0.00 | 0.00 | 98 | 915.0 |
| 20260506035249 | 64 | 114 | 0.0 | 3.0 | 0.00 | 0.00 | 0.00 | 98 | 915.0 |
| 20260506034751 | 64 | 98 | 0.0 | 1.0 | 0.00 | 0.00 | 0.00 | 98 | 914.9 |
| 20260506034749 | 64 | 104 | 0.0 | 1.0 | 0.00 | 0.00 | 0.00 | 98 | 914.9 |
| 20260506034249 | 64 | 104 | 0.0 | 0.0 | 0.00 | 0.00 | 0.00 | 98 | 915.0 |
| 20260506033750 | 64 | 103 | 2.0 | 4.0 | 0.00 | 0.00 | 0.00 | 98 | 914.9 |
| 20260506033249 | 64 | 103 | 4.0 | 6.0 | 0.00 | 0.00 | 0.00 | 98 | 915.0 |
| 20260506032952 | 63 | 57 | 0.0 | 0.0 | 0.00 | 0.00 | 0.00 | 98 | 915.0 |
| 20260506032749 | 63 | 76 | 0.0 | 4.0 | 0.00 | 0.00 | 0.00 | 98 | 915.0 |
| 20260506032350 | 64 | 85 | 4.0 | 6.0 | 0.00 | 0.00 | 0.00 | 98 | 914.9 |
| 20260506032249 | 64 | 95 | 4.0 | 6.0 | 0.00 | 0.00 | 0.00 | 98 | 914.9 |
| 20260506031751 | 64 | 111 | 2.0 | 6.0 | 0.00 | 0.00 | 0.00 | 98 | 914.9 |
| 20260506031749 | 64 | 113 | 2.0 | 6.0 | 0.00 | 0.00 | 0.00 | 98 | 914.9 |
| 20260506030550 | 63 | 86 | 0.0 | 3.0 | 0.00 | 0.00 | 0.00 | 98 | 914.9 |
| 20260506030249 | 64 | 82 | 3.0 | 5.0 | 0.00 | 0.00 | 0.00 | 98 | 914.9 |
| 20260506025950 | 63 | 66 | 0.0 | 3.0 | 0.00 | 0.00 | 0.00 | 98 | 914.9 |
| 20260506025749 | 64 | 87 | 4.0 | 8.0 | 0.00 | 0.00 | 0.00 | 98 | 914.9 |
| 20260506025351 | 64 | 71 | 4.0 | 8.0 | 0.00 | 0.00 | 0.00 | 98 | 914.9 |
| 20260506025249 | 64 | 81 | 5.0 | 8.0 | 0.00 | 0.00 | 0.00 | 98 | 914.9 |
| 20260506024750 | 64 | 71 | 3.0 | 8.0 | 0.00 | 0.00 | 0.00 | 98 | 914.9 |
| 20260506024249 | 63 | 87 | 7.0 | 10.0 | 0.00 | 0.00 | 0.00 | 98 | 914.9 |
| 20260506024150 | 63 | 90 | 3.0 | 10.0 | 0.00 | 0.00 | 0.00 | 98 | 914.9 |
| 20260506023749 | 64 | 95 | 1.0 | 6.0 | 0.00 | 0.00 | 0.00 | 98 | 914.9 |
| 20260506023550 | 63 | 84 | 0.0 | 7.0 | 0.00 | 0.00 | 0.00 | 98 | 914.9 |
| 20260506023249 | 64 | 62 | 6.0 | 10.0 | 0.00 | 0.00 | 0.00 | 98 | 914.8 |
| 20260506022950 | 64 | 86 | 6.0 | 8.0 | 0.00 | 0.00 | 0.00 | 98 | 914.8 |
| 20260506022749 | 63 | 77 | 0.0 | 7.0 | 0.00 | 0.00 | 0.00 | 98 | 914.8 |
| 20260506022350 | 63 | 88 | 5.0 | 9.0 | 0.00 | 0.00 | 0.00 | 98 | 914.8 |
| 20260506022248 | 63 | 75 | 1.0 | 8.0 | 0.00 | 0.00 | 0.00 | 98 | 914.8 |
| 20260506021750 | 63 | 82 | 6.0 | 8.0 | 0.00 | 0.00 | 0.00 | 98 | 914.9 |
| 20260506021748 | 63 | 78 | 6.0 | 8.0 | 0.00 | 0.00 | 0.00 | 98 | 914.9 |
| 20260506021248 | 63 | 75 | 2.0 | 8.0 | 0.00 | 0.00 | 0.00 | 98 | 914.8 |
| 20260506021151 | 63 | 76 | 6.0 | 8.0 | 0.00 | 0.00 | 0.00 | 98 | 914.8 |
| 20260506020249 | 62 | 86 | 0.0 | 0.0 | 0.00 | 0.00 | 0.00 | 98 | 914.8 |
| 20260506015350 | 63 | 77 | 6.0 | 8.0 | 0.00 | 0.00 | 0.00 | 98 | 914.9 |
| 20260506015248 | 63 | 60 | 5.0 | 8.0 | 0.00 | 0.00 | 0.00 | 98 | 914.9 |
| 20260506014750 | 63 | 60 | 6.0 | 8.0 | 0.00 | 0.00 | 0.00 | 98 | 914.9 |
| 20260506014748 | 63 | 65 | 6.0 | 8.0 | 0.00 | 0.00 | 0.00 | 98 | 914.8 |
| 20260506014248 | 63 | 80 | 7.0 | 9.0 | 0.00 | 0.00 | 0.00 | 98 | 914.9 |
| 20260506014150 | 63 | 72 | 4.0 | 8.0 | 0.00 | 0.00 | 0.00 | 98 | 914.8 |
| 20260506013748 | 63 | 78 | 8.0 | 9.0 | 0.00 | 0.00 | 0.00 | 98 | 914.8 |
| 20260506013550 | 63 | 90 | 6.0 | 9.0 | 0.00 | 0.00 | 0.00 | 98 | 914.8 |
| 20260506013248 | 63 | 48 | 4.0 | 8.0 | 0.00 | 0.00 | 0.00 | 97 | 914.9 |
| 20260506012748 | 63 | 53 | 2.0 | 9.0 | 0.00 | 0.00 | 0.00 | 98 | 914.9 |
| 20260506012349 | 63 | 81 | 1.0 | 7.0 | 0.00 | 0.00 | 0.00 | 98 | 914.9 |
| 20260506012250 | 63 | 72 | 6.0 | 8.0 | 0.00 | 0.00 | 0.00 | 98 | 914.9 |
| 20260506011750 | 63 | 82 | 1.0 | 7.0 | 0.00 | 0.00 | 0.00 | 98 | 915.0 |
| 20260506011748 | 63 | 78 | 1.0 | 7.0 | 0.00 | 0.00 | 0.00 | 98 | 915.0 |
| 20260506011249 | 62 | 79 | 0.0 | 0.0 | 0.00 | 0.00 | 0.00 | 98 | 915.0 |
| 20260506011149 | 63 | 94 | 2.0 | 6.0 | 0.00 | 0.00 | 0.00 | 98 | 915.0 |
| 20260506010748 | 63 | 67 | 4.0 | 5.0 | 0.00 | 0.00 | 0.00 | 98 | 915.0 |
| 20260506010549 | 63 | 83 | 1.0 | 5.0 | 0.00 | 0.00 | 0.00 | 98 | 915.0 |
| 20260506010248 | 62 | 72 | 3.0 | 6.0 | 0.00 | 0.00 | 0.00 | 98 | 915.0 |
| 20260506005949 | 62 | 38 | 3.0 | 6.0 | 0.00 | 0.00 | 0.00 | 98 | 915.0 |
| 20260506005748 | 62 | 78 | 2.0 | 6.0 | 0.00 | 0.00 | 0.00 | 98 | 915.0 |
| 20260506005349 | 62 | 52 | 5.0 | 9.0 | 0.00 | 0.00 | 0.00 | 98 | 915.0 |
| 20260506005248 | 62 | 51 | 5.0 | 9.0 | 0.00 | 0.00 | 0.00 | 98 | 915.0 |
| 20260506004750 | 62 | 70 | 7.0 | 9.0 | 0.00 | 0.00 | 0.00 | 97 | 914.9 |
| 20260506004748 | 62 | 52 | 7.0 | 9.0 | 0.00 | 0.00 | 0.00 | 97 | 914.9 |
| 20260506004248 | 62 | 85 | 0.0 | 7.0 | 0.00 | 0.00 | 0.00 | 98 | 914.9 |
| 20260506004149 | 62 | 83 | 5.0 | 6.0 | 0.00 | 0.00 | 0.00 | 98 | 915.0 |
| 20260506003748 | 62 | 84 | 2.0 | 5.0 | 0.00 | 0.00 | 0.00 | 98 | 914.9 |
| 20260506003248 | 62 | 76 | 5.0 | 7.0 | 0.00 | 0.00 | 0.00 | 97 | 914.9 |
| 20260506002949 | 62 | 78 | 2.0 | 6.0 | 0.00 | 0.00 | 0.00 | 98 | 914.9 |
| 20260506002748 | 62 | 77 | 5.0 | 8.0 | 0.00 | 0.00 | 0.00 | 98 | 914.8 |
| 20260506002349 | 62 | 55 | 6.0 | 8.0 | 0.00 | 0.00 | 0.00 | 97 | 914.8 |
| 20260506002248 | 62 | 57 | 4.0 | 8.0 | 0.00 | 0.00 | 0.00 | 97 | 914.8 |
| 20260506001747 | 62 | 78 | 4.0 | 8.0 | 0.00 | 0.00 | 0.00 | 98 | 914.6 |
| 20260506001248 | 62 | 66 | 3.0 | 8.0 | 0.00 | 0.00 | 0.00 | 98 | 914.7 |
| 20260506001149 | 61 | 66 | 0.0 | 5.0 | 0.00 | 0.00 | 0.00 | 98 | 914.7 |
| 20260506000747 | 61 | 51 | 0.0 | 5.0 | 0.00 | 0.00 | 0.00 | 98 | 914.6 |
| 20260506000549 | 62 | 54 | 2.0 | 6.0 | 0.00 | 0.00 | 0.00 | 98 | 914.6 |
| 20260506000247 | 62 | 20 | 4.0 | 7.0 | 0.00 | 0.00 | 0.00 | 98 | 914.6 |
| 20260505235949 | 62 | 61 | 5.0 | 6.0 | 0.00 | 0.00 | 0.00 | 98 | 914.5 |
| 20260505235747 | 62 | 54 | 2.0 | 6.0 | 0.00 | 0.00 | 0.00 | 98 | 914.6 |
| 20260505235349 | 61 | 51 | 0.0 | 6.0 | 0.00 | 0.00 | 0.00 | 98 | 914.6 |
| 20260505234749 | 61 | 68 | 3.0 | 9.0 | 0.00 | 0.00 | 0.00 | 98 | 914.6 |
| 20260505234747 | 61 | 73 | 3.0 | 9.0 | 0.00 | 0.00 | 0.00 | 98 | 914.5 |
| 20260505234148 | 61 | 83 | 8.0 | 10.0 | 0.00 | 0.00 | 0.00 | 97 | 914.6 |
| 20260505233549 | 61 | 63 | 5.0 | 9.0 | 0.00 | 0.00 | 0.00 | 97 | 914.4 |
| 20260505232949 | 61 | 64 | 1.0 | 9.0 | 0.00 | 0.00 | 0.00 | 98 | 914.4 |
| 20260505232747 | 61 | 78 | 8.0 | 11.0 | 0.00 | 0.00 | 0.00 | 97 | 914.4 |
| 20260505232348 | 61 | 72 | 8.0 | 10.0 | 0.00 | 0.00 | 0.00 | 97 | 914.4 |
| 20260505232247 | 61 | 75 | 8.0 | 10.0 | 0.00 | 0.00 | 0.00 | 97 | 914.4 |
| 20260505231749 | 61 | 71 | 8.0 | 11.0 | 0.00 | 0.00 | 0.00 | 97 | 914.3 |
| 20260505231747 | 61 | 70 | 8.0 | 11.0 | 0.00 | 0.00 | 0.00 | 97 | 914.4 |
| 20260505231449 | 61 | 76 | 7.0 | 11.0 | 0.00 | 0.00 | 0.00 | 97 | 914.3 |
| 20260505231247 | 61 | 82 | 7.0 | 11.0 | 0.00 | 0.00 | 0.00 | 97 | 914.4 |
| 20260505231148 | 61 | 76 | 7.0 | 11.0 | 0.00 | 0.00 | 0.00 | 97 | 914.3 |
| 20260505230747 | 61 | 57 | 7.0 | 10.0 | 0.00 | 0.00 | 0.00 | 97 | 914.3 |
| 20260505230548 | 61 | 54 | 6.0 | 9.0 | 0.00 | 0.00 | 0.00 | 97 | 914.3 |
| 20260505230247 | 61 | 73 | 5.0 | 9.0 | 0.00 | 0.00 | 0.00 | 97 | 914.3 |
| 20260505225948 | 61 | 94 | 7.0 | 8.0 | 0.00 | 0.00 | 0.00 | 97 | 914.2 |
| 20260505225747 | 61 | 72 | 5.0 | 7.0 | 0.00 | 0.00 | 0.00 | 97 | 914.3 |
| 20260505225348 | 61 | 66 | 4.0 | 8.0 | 0.00 | 0.00 | 0.00 | 97 | 914.3 |
| 20260505225247 | 61 | 64 | 5.0 | 8.0 | 0.00 | 0.00 | 0.00 | 97 | 914.3 |
| 20260505224749 | 61 | 63 | 6.0 | 8.0 | 0.00 | 0.00 | 0.00 | 97 | 914.2 |
| 20260505224747 | 61 | 60 | 6.0 | 8.0 | 0.00 | 0.00 | 0.00 | 97 | 914.2 |
| 20260505224247 | 61 | 38 | 4.0 | 7.0 | 0.00 | 0.00 | 0.00 | 97 | 914.1 |
| 20260505224148 | 61 | 61 | 4.0 | 7.0 | 0.00 | 0.00 | 0.00 | 97 | 914.1 |
| 20260505223747 | 61 | 74 | 6.0 | 8.0 | 0.00 | 0.00 | 0.00 | 97 | 914.1 |
| 20260505223548 | 61 | 46 | 0.0 | 4.0 | 0.00 | 0.00 | 0.00 | 97 | 914.1 |
| 20260505223247 | 61 | 83 | 6.0 | 9.0 | 0.00 | 0.00 | 0.00 | 97 | 914.0 |
| 20260505222948 | 61 | 96 | 5.0 | 9.0 | 0.00 | 0.00 | 0.00 | 97 | 914.0 |
| 20260505222747 | 61 | 71 | 6.0 | 9.0 | 0.00 | 0.00 | 0.00 | 97 | 914.0 |
| 20260505222348 | 61 | 81 | 1.0 | 6.0 | 0.00 | 0.00 | 0.00 | 97 | 914.0 |
| 20260505222246 | 61 | 77 | 3.0 | 7.0 | 0.00 | 0.00 | 0.00 | 97 | 914.1 |
| 20260505221748 | 61 | 79 | 3.0 | 6.0 | 0.00 | 0.00 | 0.00 | 97 | 914.1 |
| 20260505221247 | 61 | 80 | 1.0 | 4.0 | 0.00 | 0.00 | 0.00 | 97 | 914.0 |
| 20260505221148 | 61 | 34 | 3.0 | 6.0 | 0.00 | 0.00 | 0.00 | 97 | 913.9 |
| 20260505220548 | 61 | 77 | 3.0 | 5.0 | 0.00 | 0.00 | 0.00 | 97 | 913.9 |
| 20260505220246 | 61 | 66 | 4.0 | 5.0 | 0.00 | 0.00 | 0.00 | 97 | 913.8 |
| 20260505215948 | 61 | 62 | 3.0 | 4.0 | 0.00 | 0.00 | 0.00 | 97 | 913.8 |